Location: Pinhead Observatory
(34.4473°N, 118.1985°W)
Time: 13:45:30
(UTC-08:00)

CZ-4C R/B - Visible Passes

Search period start: 03 December 2016 00:00
Search period end: 13 December 2016 00:00
Orbit: 730 x 1272 km, 63.4° (Epoch: 02 December)

Date Brightness Start Highest point End Pass type
(mag) Time Alt. Az. Time Alt. Az. Time Alt. Az.
09 Dec 4.9 06:21:01 10° N 06:24:22 14° NE 06:27:52 10° ENE visible
11 Dec 5.0 05:40:30 10° NNE 05:42:39 11° NE 05:44:52 10° NE visible
12 Dec 4.8 06:11:54 10° N 06:17:15 22° NE 06:22:57 10° E visible
